Weather in Novaya Romanovka

Russia / Bryansk Oblast     53°00′19″N   32°56′32″E
temp.,
°C
wind,
m/s
gust,
m/s
humid.,
%
clouds,
%
prec.,
mm/h
press.,
hPa
HPBL,
m
14 april, wed
wed1400:00+11ssw119099 0.1 101818
03:00+10ssw379318 0.6 1018281
06:00+8sse349738 0.0 101875
09:00+11sse357979 0.0 1018433
12:00+14sse4562100 0.0 10171175
15:00+15sse2359100 0.3 10161178
18:00+13se357497 0.6 1016189
21:00+11ese2279100 0.7 101629
15 april, thu
thu1500:00+10ese1181100 0.1 101511
03:00+9n1195100 2.3 101529
06:00+9nne2394100 0.4 1014117
09:00+11ene1284100 0.8 1014229
12:00+14ese466288 1.5 1013854
15:00+16ese345794 3.4 10121244
18:00+11se3686100 5.0 1012248
21:00+10ene479198 6.0 1013199
16 april, fri
fri1600:00+9ene489588 0.7 1012247
03:00+8e4109361 0.8 1012229
06:00+8e4118755 0.0 1014372
09:00+11ese587896 0.0 1015640
12:00+11e5777100 0.3 1015785
15:00+13e576671 1.0 10151240
18:00+14ese36626 0.8 10151163
21:00+9s238082 0.9 101729
17 april, sat
sat1700:00+7ese35865 0.0 1019105
03:00+6se22855 0.0 102024
06:00+5e338396 0.0 102130
09:00+9ene247496 0.0 1021331
12:00+12ne567698 0.1 1021898
15:00+11ne6981100 0.1 10211010
18:00+12nne51178100 0.0 1021833
21:00+11ene7147728 0.0 1021674
18 april, sun
sun1800:00+9ene7157895 0.0 1021569
03:00+7ne5128484 0.0 1022342
06:00+7ene510826 0.0 1023407
09:00+8ene578192 0.0 1024498
12:00+11ene577072 0.0 10251006
15:00+11e466984 0.1 1025906
18:00+10e51082100 0.1 1026590
21:00+8e34885 0.1 102772